| time (UTC) | temp F | wind direction | speed knots | gust knots | rain 1hr in | rain 24hr in | rain mn in | humidity % | barometer mb |
| 20260902024648 | 72 | 6 | 2.6 | 7.0 | 0.07 | 0.07 | 0.07 | 89 | 1016.8 |
| 20260902023006 | 74 | 14 | 4.3 | 12.2 | 0.05 | 0.05 | 0.05 | 85 | 1016.9 |
| 20260902021545 | 81 | 30 | 1.7 | 4.3 | 0.00 | 0.00 | 0.00 | 85 | 1015.2 |
| 20260902020032 | 81 | 173 | 0.0 | 2.6 | 0.00 | 0.00 | 0.00 | 84 | 1013.4 |
| 20260902014608 | 81 | 167 | 0.0 | 3.5 | 0.00 | 0.00 | 0.00 | 84 | 1013.3 |
| 20260902013033 | 81 | 158 | 0.0 | 2.6 | 0.00 | 0.00 | 0.00 | 84 | 1012.6 |
| 20260902011608 | 81 | 117 | 0.0 | 2.6 | 0.00 | 0.00 | 0.00 | 82 | 1012.8 |
| 20260902010038 | 81 | 150 | 0.9 | 3.5 | 0.00 | 0.00 | 0.00 | 83 | 1012.3 |
| 20260902004514 | 80 | 142 | 0.0 | 1.7 | 0.00 | 0.00 | 0.00 | 85 | 1012.4 |
| 20260902003055 | 81 | 161 | 0.0 | 4.3 | 0.00 | 0.00 | 0.00 | 85 | 1012.6 |
| 20260902001526 | 81 | 146 | 0.0 | 0.0 | 0.00 | 0.00 | 0.00 | 84 | 1012.5 |
| 20260902000108 | 81 | 147 | 0.0 | 2.6 | 0.00 | 0.00 | 0.00 | 85 | 1012.4 |
| 20260901234534 | 81 | 71 | 0.0 | 2.6 | 0.00 | 0.00 | 0.00 | 84 | 1012.5 |
| 20260901233112 | 82 | 171 | 0.0 | 1.7 | 0.00 | 0.00 | 0.00 | 81 | 1012.8 |
| 20260901231547 | 82 | 127 | 0.9 | 3.5 | 0.00 | 0.00 | 0.00 | 80 | 1012.8 |
| 20260901230020 | 81 | 144 | 0.0 | 2.6 | 0.00 | 0.00 | 0.00 | 84 | 1012.8 |
| 20260901224557 | 81 | 131 | 0.9 | 6.1 | 0.00 | 0.00 | 0.00 | 85 | 1012.7 |
| 20260901223041 | 82 | 130 | 0.9 | 2.6 | 0.00 | 0.00 | 0.00 | 83 | 1012.8 |
| 20260901221615 | 83 | 78 | 0.9 | 3.5 | 0.00 | 0.00 | 0.00 | 83 | 1012.9 |
| 20260901220048 | 83 | 138 | 1.7 | 4.3 | 0.00 | 0.00 | 0.00 | 83 | 1013.1 |
| 20260901214505 | 83 | 99 | 1.7 | 5.2 | 0.00 | 0.00 | 0.00 | 82 | 1013.0 |
| 20260901213043 | 83 | 65 | 0.9 | 4.3 | 0.00 | 0.00 | 0.00 | 82 | 1013.2 |
| 20260901211514 | 83 | 186 | 0.9 | 5.2 | 0.00 | 0.00 | 0.00 | 82 | 1013.2 |
| 20260901210111 | 83 | 98 | 0.9 | 5.2 | 0.00 | 0.00 | 0.00 | 81 | 1013.3 |
| 20260901204538 | 84 | 113 | 2.6 | 7.0 | 0.00 | 0.00 | 0.00 | 81 | 1013.2 |
| 20260901203012 | 84 | 65 | 1.7 | 7.0 | 0.00 | 0.00 | 0.00 | 80 | 1013.2 |
| 20260901201546 | 84 | 169 | 2.6 | 7.0 | 0.00 | 0.00 | 0.00 | 79 | 1013.1 |
| 20260901200014 | 85 | 106 | 1.7 | 7.0 | 0.00 | 0.00 | 0.00 | 76 | 1013.6 |
| 20260901194603 | 86 | 158 | 0.9 | 4.3 | 0.00 | 0.00 | 0.00 | 75 | 1013.9 |
| 20260901193019 | 87 | 136 | 0.0 | 6.1 | 0.00 | 0.00 | 0.00 | 75 | 1013.7 |
| 20260901191606 | 87 | 166 | 1.7 | 4.3 | 0.00 | 0.00 | 0.00 | 73 | 1013.7 |
| 20260901190042 | 89 | 128 | 0.0 | 2.6 | 0.00 | 0.00 | 0.00 | 71 | 1013.8 |
| 20260901184607 | 88 | 87 | 0.0 | 3.5 | 0.00 | 0.00 | 0.00 | 68 | 1014.0 |
| 20260901183040 | 88 | 51 | 0.0 | 2.6 | 0.00 | 0.00 | 0.00 | 68 | 1014.1 |
| 20260901181511 | 88 | 55 | 0.0 | 4.3 | 0.00 | 0.00 | 0.00 | 68 | 1014.3 |
| 20260901180055 | 88 | 20 | 0.0 | 1.7 | 0.00 | 0.00 | 0.00 | 67 | 1014.3 |
| 20260901174531 | 89 | 251 | 0.0 | 1.7 | 0.00 | 0.00 | 0.00 | 64 | 1014.6 |
| 20260901173105 | 92 | 55 | 0.0 | 3.5 | 0.00 | 0.00 | 0.00 | 61 | 1014.6 |
| 20260901171533 | 93 | 73 | 0.9 | 3.5 | 0.00 | 0.00 | 0.00 | 59 | 1014.6 |
| 20260901170005 | 92 | 180 | 0.9 | 5.2 | 0.00 | 0.00 | 0.00 | 63 | 1014.7 |
| 20260901164548 | 91 | 76 | 0.9 | 2.6 | 0.00 | 0.00 | 0.00 | 65 | 1014.8 |
| 20260901163024 | 90 | 221 | 0.9 | 3.5 | 0.00 | 0.00 | 0.00 | 65 | 1015.0 |
| 20260901161542 | 88 | 179 | 0.0 | 1.7 | 0.00 | 0.00 | 0.00 | 68 | 1015.1 |
| 20260901160016 | 87 | 162 | 0.9 | 3.5 | 0.00 | 0.00 | 0.00 | 68 | 1015.2 |
| 20260901154556 | 87 | 217 | 0.0 | 4.3 | 0.00 | 0.00 | 0.00 | 67 | 1015.2 |
| 20260901153034 | 89 | 158 | 0.0 | 3.5 | 0.00 | 0.00 | 0.00 | 64 | 1015.4 |
| 20260901151611 | 89 | 172 | 0.0 | 3.5 | 0.00 | 0.00 | 0.00 | 62 | 1015.3 |
| 20260901150044 | 88 | 123 | 0.0 | 4.3 | 0.00 | 0.00 | 0.00 | 64 | 1015.2 |
| 20260901144511 | 90 | 58 | 0.9 | 6.1 | 0.00 | 0.00 | 0.00 | 61 | 1015.3 |
| 20260901143117 | 89 | 186 | 1.7 | 5.2 | 0.00 | 0.00 | 0.00 | 64 | 1015.5 |
| 20260901141525 | 89 | 165 | 0.0 | 2.6 | 0.00 | 0.00 | 0.00 | 67 | 1015.4 |
| 20260901140112 | 87 | 172 | 0.9 | 3.5 | 0.00 | 0.00 | 0.00 | 70 | 1015.6 |
| 20260901134541 | 87 | 92 | 0.0 | 1.7 | 0.00 | 0.00 | 0.00 | 73 | 1015.7 |
| 20260901133010 | 86 | 78 | 0.0 | 3.5 | 0.00 | 0.00 | 0.00 | 75 | 1015.7 |
| 20260901131549 | 84 | 75 | 0.9 | 3.5 | 0.00 | 0.00 | 0.00 | 78 | 1015.8 |
| 20260901130017 | 83 | 158 | 0.0 | 2.6 | 0.00 | 0.00 | 0.00 | 82 | 1016.0 |
| 20260901124556 | 81 | 255 | 0.0 | 2.6 | 0.00 | 0.00 | 0.00 | 87 | 1016.1 |
| 20260901123024 | 79 | 57 | 0.0 | 0.9 | 0.00 | 0.00 | 0.00 | 91 | 1016.1 |
| 20260901121602 | 78 | 178 | 0.0 | 1.7 | 0.00 | 0.00 | 0.00 | 93 | 1016.3 |
| 20260901120027 | 77 | 159 | 0.0 | 2.6 | 0.00 | 0.00 | 0.00 | 94 | 1016.0 |
| 20260901114504 | 76 | 162 | 0.0 | 0.0 | 0.00 | 0.00 | 0.00 | 94 | 1016.2 |
| 20260901113055 | 76 | 26 | 0.0 | 0.0 | 0.00 | 0.00 | 0.00 | 94 | 1016.3 |
| 20260901111524 | 76 | 145 | 0.0 | 0.0 | 0.00 | 0.00 | 0.00 | 94 | 1016.2 |
| 20260901110107 | 75 | 122 | 0.0 | 0.0 | 0.00 | 0.00 | 0.00 | 94 | 1016.1 |
| 20260901104544 | 75 | 111 | 0.0 | 0.0 | 0.00 | 0.00 | 0.00 | 94 | 1015.8 |
| 20260901103005 | 75 | 134 | 0.0 | 1.7 | 0.00 | 0.00 | 0.00 | 93 | 1015.6 |
| 20260901101553 | 75 | 155 | 0.0 | 1.7 | 0.00 | 0.00 | 0.00 | 93 | 1015.7 |
| 20260901100021 | 75 | 162 | 0.0 | 0.0 | 0.00 | 0.00 | 0.00 | 93 | 1015.6 |
| 20260901094602 | 75 | 162 | 0.0 | 0.0 | 0.00 | 0.00 | 0.00 | 93 | 1015.7 |
| 20260901093036 | 75 | 169 | 0.0 | 0.0 | 0.00 | 0.00 | 0.00 | 93 | 1015.9 |
| 20260901091504 | 75 | 167 | 0.0 | 1.7 | 0.00 | 0.00 | 0.00 | 93 | 1015.8 |
| 20260901090043 | 75 | 158 | 0.0 | 1.7 | 0.00 | 0.00 | 0.00 | 93 | 1015.9 |
| 20260901084513 | 75 | 181 | 0.0 | 1.7 | 0.00 | 0.01 | 0.00 | 92 | 1015.9 |
| 20260901083054 | 75 | 155 | 0.0 | 1.7 | 0.00 | 0.01 | 0.00 | 92 | 1016.1 |
| 20260901081523 | 75 | 143 | 0.0 | 1.7 | 0.00 | 0.01 | 0.00 | 93 | 1016.0 |
| 20260901080106 | 75 | 158 | 0.0 | 2.6 | 0.00 | 0.01 | 0.00 | 92 | 1016.1 |
| 20260901074545 | 75 | 155 | 0.0 | 0.0 | 0.00 | 0.15 | 0.00 | 92 | 1016.2 |
| 20260901073001 | 75 | 163 | 0.0 | 0.0 | 0.00 | 0.15 | 0.00 | 92 | 1016.4 |
| 20260901071549 | 75 | 163 | 0.0 | 0.9 | 0.00 | 0.15 | 0.00 | 92 | 1016.3 |
| 20260901070015 | 75 | 152 | 0.0 | 1.7 | 0.00 | 0.15 | 0.00 | 92 | 1016.2 |
| 20260901064555 | 75 | 180 | 0.0 | 0.9 | 0.00 | 0.67 | 0.00 | 91 | 1016.4 |
| 20260901063018 | 75 | 157 | 0.0 | 2.6 | 0.00 | 0.67 | 0.00 | 91 | 1016.5 |
| 20260901061602 | 75 | 157 | 0.0 | 1.7 | 0.00 | 0.67 | 0.00 | 91 | 1016.6 |
| 20260901060027 | 75 | 156 | 0.0 | 0.0 | 0.00 | 0.67 | 0.00 | 90 | 1016.8 |
| 20260901054607 | 75 | 174 | 0.0 | 1.7 | 0.00 | 0.67 | 0.00 | 90 | 1017.1 |
| 20260901053040 | 75 | 173 | 0.0 | 0.9 | 0.00 | 0.67 | 0.00 | 90 | 1017.3 |
| 20260901051506 | 75 | 150 | 0.0 | 0.0 | 0.00 | 0.67 | 0.00 | 90 | 1017.3 |
| 20260901050043 | 75 | 154 | 0.0 | 0.9 | 0.00 | 0.67 | 0.00 | 90 | 1017.4 |
| 20260901044510 | 76 | 159 | 0.0 | 1.7 | 0.00 | 0.67 | 0.00 | 90 | 1017.4 |
| 20260901043108 | 76 | 179 | 0.0 | 2.6 | 0.00 | 0.67 | 0.00 | 90 | 1017.4 |
| 20260901041524 | 75 | 162 | 0.9 | 3.5 | 0.00 | 0.67 | 0.00 | 90 | 1017.5 |
| 20260901040137 | 75 | 187 | 0.0 | 1.7 | 0.00 | 0.67 | 0.00 | 90 | 1017.2 |
| 20260901034548 | 75 | 164 | 0.0 | 1.7 | 0.00 | 0.67 | 0.67 | 90 | 1017.2 |
| 20260901033014 | 75 | 163 | 0.0 | 2.6 | 0.00 | 0.67 | 0.67 | 89 | 1017.1 |
| 20260901031625 | 75 | 122 | 0.0 | 1.7 | 0.00 | 0.67 | 0.67 | 89 | 1017.2 |
| 20260901030043 | 75 | 156 | 0.9 | 5.2 | 0.00 | 0.67 | 0.67 | 89 | 1017.4 |